[[{"header":{"parameterUnit":"m.s-1","parameterCategory":1,"la1":30.2991,"la2":30.254,"lo1":-89.0895,"lo2":-89.0444,"dy":0.0017,"dx":0.0017,"nx":28,"ny":28,"refTime":"2025-03-26T21:00:00:Z","depth":0,"parameterNumber":2,"parameterNumberName":"U-component_of_WINDS"},"data":[0,0,0,0,0,0,0,0,0,0,0,0,0,0,0,0,0,0,0,0,0,0,0,0,0,0,0,0,0,0,0,0,0,0,0,0,0,0,0,0,0,0,0,0,0,0,0,0,0,0,0,0,0,0,0,0,0,0,-5.0938,-5.0939,0,-5.1044,-5.1046,-5.1047,-5.0993,-5.099,-5.0988,-5.0985,-5.1094,-5.1099,-5.1104,0,0,0,0,0,0,0,0,0,0,0,0,0,-5.0687,-5.0692,-5.0937,-5.0939,-5.094,-5.1044,-5.1046,-5.1047,-5.0994,-5.099,-5.0987,-5.0984,-5.1092,-5.1098,-5.1105,0,0,0,0,0,0,0,0,0,0,0,0,0,-5.0795,-5.0694,-5.0937,-5.0926,-5.0926,-5.1044,-5.1046,-5.1048,-5.0994,-5.099,-5.0986,-5.0982,-5.109,-5.1098,-5.1106,-5.1241,0,0,-5.1131,-5.1134,0,0,0,0,0,0,0,0,-5.0789,-5.0804,-5.0926,-5.0927,-5.0927,-5.1001,-5.0997,-5.1112,-5.0995,-5.0968,-5.0985,-5.098,-5.1066,-5.1076,-5.1105,-5.1246,-5.125,-5.1132,-5.1137,-5.114,-5.1143,0,0,0,0,0,0,0,-5.0782,-5.0799,-5.098,-5.0928,-5.0929,-5.0916,-5.0926,-5.1019,-5.1039,-5.097,-5.0967,-5.098,-5.1066,-5.1097,-5.1107,-5.1252,-5.1131,-5.1139,-5.1144,-5.1147,-5.1509,-5.1513,0,0,0,0,0,0,-5.0775,-5.0794,-5.0976,-5.0983,-5.0846,-5.0924,-5.0936,-5.0982,-5.1038,-5.1043,-5.0984,-5.0977,-5.1085,-5.1098,-5.1111,-5.1272,-5.114,-5.1148,-5.1153,-5.1504,-5.151,-5.1515,0,0,0,0,0,0,-5.077,-5.0792,-5.0972,-5.0887,-5.0909,-5.0932,-5.0985,-5.0986,-5.1018,-5.1048,-5.1052,-5.1012,-5.1083,-5.1099,-5.1209,-5.1275,-5.1152,-5.1159,-5.1499,-5.1506,-5.1512,-5.1595,0,0,0,0,0,0,-5.0763,-5.079,-5.0841,-5.0889,-5.0914,-5.1068,-5.0989,-5.0991,-5.1032,-5.1025,-5.1076,-5.1081,-5.1081,-5.1197,-5.1217,-5.1284,-5.1166,-5.1493,-5.1502,-5.151,-5.1586,-5.1604,-5.1619,0,0,0,0,0,-5.0754,-5.086,-5.0844,-5.0866,-5.0979,-5.1072,-5.1086,-5.1084,-5.1038,-5.1089,-5.1109,-5.1079,-5.1265,-5.1209,-5.1231,-5.1301,-5.1488,-5.1499,-5.1509,-5.1579,-5.16,-5.1619,0,0,0,0,0,0,-5.0818,-5.0866,-5.0849,-5.0973,-5.1019,-5.1063,-5.1127,-5.1107,-5.1166,-5.1157,-5.1152,-5.1164,-5.1278,-5.1301,-5.1237,-5.1435,-5.137,-5.1385,-5.1415,-5.1436,-5.1452,-5.1442,-5.1172,0,0,0,0,0,-5.0847,-5.0919,-5.0957,-5.1063,-5.1087,-5.1104,-5.1144,-5.1139,-5.1186,-5.1205,-5.1233,-5.128,-5.1349,-5.1394,-5.1459,-5.1591,-5.1601,-5.1651,-5.1667,-5.168,-5.1692,-5.1763,-5.1786,-5.1549,-5.1549,-5.1549,0,0,-5.0907,-5.0942,-5.0987,-5.1077,-5.1112,-5.1186,-5.112,-5.1202,-5.1257,-5.1217,-5.1322,-5.1345,-5.1397,-5.1518,-5.1572,-5.154,-5.1761,-5.1693,-5.1704,-5.1709,-5.1776,-5.1799,-5.1819,-5.1556,-5.1555,-5.1554,0,0,-5.1053,-5.1088,-5.118,-5.1217,-5.1271,-5.1282,-5.1304,-5.1352,-5.1365,-5.1471,-5.1443,-5.1509,-5.1628,-5.1666,-5.1701,-5.1865,-5.1839,-5.1887,-5.197,-5.204,-5.2058,-5.2075,-5.2132,-5.2153,-5.19,-5.19,-5.19,0,-5.112,-5.1231,-5.123,-5.1314,-5.1354,-5.1324,-5.1417,-5.1453,-5.1525,-5.1554,-5.1518,-5.1667,-5.17,-5.1829,-5.1869,-5.19,-5.1924,-5.1879,-5.2056,-5.2072,-5.2088,-5.2142,-5.2164,-5.1905,-5.1905,-5.1904,-5.1904,0,-5.1311,-5.1388,-5.1457,-5.1528,-5.1576,-5.1665,-5.1676,-5.1726,-5.1718,-5.1733,-5.1841,-5.188,-5.1952,-5.1984,-5.1976,-5.2112,-5.2091,-5.2056,-5.1989,-5.2116,-5.2166,-5.2187,-5.1913,-5.1911,-5.1909,-5.1908,0,0,-5.1496,-5.1568,-5.1593,-5.1625,-5.1684,-5.1744,-5.1832,-5.1903,-5.1945,-5.1998,-5.207,-5.2173,-5.2142,-5.2182,-5.2179,-5.224,-5.2367,-5.2198,-5.2199,-5.2226,-5.2518,-5.2542,-5.2566,-5.2351,-5.2355,-5.2359,-5.2513,0,-5.1645,-5.1798,-5.18,-5.1941,-5.2012,-5.1986,-5.2063,-5.2107,-5.2125,-5.2188,-5.2207,-5.2279,-5.2233,-5.2257,-5.2317,-5.2338,-5.2425,-5.2328,-5.2417,-5.2421,-5.2402,-5.2593,-5.2618,-5.2761,-5.2533,-5.2536,-5.2539,0,-5.1838,-5.1897,-5.2045,-5.2094,-5.2124,-5.2193,-5.2259,-5.2321,-5.2371,-5.2379,-5.2426,-5.2414,-5.2504,-5.2438,-5.2561,-5.2495,-5.2533,-5.2549,-5.2555,-5.256,-5.2485,-5.2601,-5.2807,-5.2828,-5.2571,-5.2568,-5.2566,0,-5.1956,-5.2073,-5.2176,-5.2205,-5.2266,-5.2315,-5.2342,-5.2389,-5.2432,-5.2491,-5.2519,-5.2588,-5.2625,-5.2678,-5.2686,-5.2637,-5.2809,-5.2744,-5.2817,-5.2817,-5.2852,-5.2849,-5.3064,-5.2881,-5.2881,-5.2881,-5.288,0,-5.212,-5.2211,-5.223,-5.2293,-5.2395,-5.2398,-5.2498,-5.2522,-5.2564,-5.2632,-5.2615,-5.2678,-5.2686,-5.2752,-5.2759,-5.2859,-5.2877,-5.2886,-5.2886,-5.2885,-5.2884,-5.2907,-5.2896,-5.2886,-5.2885,-5.2884,-5.2883,0,-5.2267,-5.2284,-5.2395,-5.2444,-5.2459,-5.2531,-5.2574,-5.2634,-5.2651,-5.2737,-5.2757,-5.2783,-5.2861,-5.2875,-5.2966,-5.297,-5.3089,-5.3081,-5.3072,-5.307,-5.3142,-5.3134,-5.3377,-5.3408,-5.3208,-5.321,-5.3212,0,-5.2369,-5.2438,-5.2496,-5.254,-5.257,-5.2642,-5.2686,-5.2694,-5.2741,-5.2805,-5.2858,-5.2934,-5.2994,-5.3118,-5.3145,-5.3215,-5.3206,-5.3287,-5.3216,-5.3214,-5.3205,-5.3199,-5.3206,-5.3299,-5.3301,-5.3303,-5.3305,0,-5.2547,-5.2553,-5.2617,-5.2686,-5.274,-5.2795,-5.2846,-5.2883,-5.2897,-5.2951,-5.303,-5.3078,-5.3171,-5.3246,-5.3316,-5.3344,-5.3327,-5.3328,-5.3348,-5.3346,-5.3337,-5.3341,-5.3106,-5.3321,-5.3319,-5.3318,-5.3317,-5.3316,-5.2673,-5.2733,-5.2783,-5.2857,-5.2897,-5.2946,-5.3005,-5.303,-5.3096,-5.3173,-5.3174,-5.326,-5.3311,-5.3403,-5.3437,-5.3504,-5.3478,-5.3508,-5.3515,-5.3522,-5.3527,-5.333,-5.3517,-5.3517,-5.3517,-5.3516,-5.3516,0,-5.2848,-5.288,-5.2948,-5.302,-5.3079,-5.3059,-5.3116,-5.3165,-5.3241,-5.3291,-5.3351,-5.3442,-5.3516,-5.355,-5.3622,-5.367,-5.3664,-5.3688,-5.3683,-5.369,-5.3547,-5.3521,-5.3692,-5.3692,-5.3692,-5.3692,-5.3692,-5.3692,-5.2946,-5.3046,-5.3059,-5.318,-5.3211,-5.3295,-5.3329,-5.3375,-5.3414,-5.3516,-5.3577,-5.36,-5.3643,-5.3719,-5.3786,-5.3794,-5.382,-5.3848,-5.3852,-5.3718,-5.37,-5.3683,-5.3658,-5.3855,-5.3855,-5.3989,-5.399,-5.3991]},{"header":{"parameterUnit":"m.s-1","parameterCategory":1,"la1":30.2991,"la2":30.254,"lo1":-89.0895,"lo2":-89.0444,"dy":0.0017,"dx":0.0017,"nx":28,"ny":28,"refTime":"2025-03-26T21:00:00:Z","depth":0,"parameterNumber":3,"parameterNumberName":"V-component_of_WINDS"},"data":[0,0,0,0,0,0,0,0,0,0,0,0,0,0,0,0,0,0,0,0,0,0,0,0,0,0,0,0,0,0,0,0,0,0,0,0,0,0,0,0,0,0,0,0,0,0,0,0,0,0,0,0,0,0,0,0,0,0,2.1943,2.1943,0,2.202,2.202,2.2021,2.2014,2.2013,2.2011,2.201,2.2088,2.2091,2.2094,0,0,0,0,0,0,0,0,0,0,0,0,0,2.179,2.1793,2.1942,2.1943,2.1944,2.2019,2.202,2.2021,2.2014,2.2013,2.2011,2.201,2.2087,2.2091,2.2095,0,0,0,0,0,0,0,0,0,0,0,0,0,2.186,2.1794,2.1942,2.195,2.1951,2.2019,2.202,2.2022,2.2014,2.2013,2.2011,2.2009,2.2086,2.209,2.2095,2.216,0,0,2.211,2.2112,0,0,0,0,0,0,0,0,2.1856,2.1866,2.1948,2.1949,2.1951,2.2005,2.1995,2.2068,2.2015,2.199,2.201,2.2008,2.2062,2.2068,2.2087,2.2164,2.2167,2.211,2.2113,2.2115,2.2116,0,0,0,0,0,0,0,2.1851,2.1863,2.1973,2.1949,2.1951,2.195,2.1958,2.2009,2.2035,2.1992,2.1992,2.2001,2.2062,2.2082,2.2089,2.2168,2.211,2.2114,2.2117,2.2119,2.2305,2.2307,0,0,0,0,0,0,2.1845,2.1859,2.197,2.1975,2.1898,2.1954,2.1963,2.199,2.2035,2.204,2.2003,2.2001,2.2075,2.2083,2.2091,2.2172,2.2115,2.2119,2.2122,2.2303,2.2306,2.2308,0,0,0,0,0,0,2.1842,2.1855,2.1967,2.1917,2.1931,2.1958,2.1989,2.1992,2.2012,2.2042,2.2047,2.2018,2.2074,2.2085,2.2144,2.2175,2.2122,2.2126,2.2301,2.2304,2.2307,2.2334,0,0,0,0,0,0,2.1837,2.1854,2.1878,2.1918,2.1934,2.2018,2.199,2.1995,2.202,2.2018,2.2058,2.2063,2.2073,2.2137,2.2149,2.218,2.213,2.2298,2.2302,2.2306,2.233,2.2337,2.2343,0,0,0,0,0,2.1832,2.1882,2.188,2.1893,2.1965,2.202,2.203,2.2041,2.2023,2.2048,2.2068,2.2062,2.217,2.2143,2.2156,2.219,2.2296,2.2301,2.2306,2.2327,2.2336,2.2343,0,0,0,0,0,0,2.1845,2.1887,2.1885,2.1949,2.1981,2.2019,2.2051,2.2049,2.2087,2.2083,2.2095,2.2104,2.2165,2.2183,2.2153,2.2257,2.2231,2.2238,2.2242,2.2251,2.2257,2.2252,2.2134,0,0,0,0,0,2.1855,2.1896,2.1931,2.1985,2.2001,2.2023,2.2048,2.2054,2.2087,2.2101,2.2125,2.2157,2.2199,2.2226,2.2265,2.2333,2.2342,2.2363,2.2369,2.2375,2.2381,2.242,2.243,2.2324,2.2324,2.2324,0,0,2.1877,2.1905,2.193,2.1988,2.2013,2.2056,2.2035,2.208,2.2112,2.2107,2.2165,2.2185,2.2222,2.2286,2.2316,2.2303,2.2413,2.2381,2.2385,2.2388,2.2426,2.2436,2.2445,2.2327,2.2326,2.2326,0,0,2.1939,2.1964,2.2012,2.2039,2.2078,2.2093,2.2105,2.2143,2.2156,2.2215,2.2213,2.2251,2.2322,2.2349,2.2372,2.2448,2.2444,2.246,2.2495,2.2533,2.2542,2.2549,2.2578,2.2587,2.2467,2.2467,2.2467,0,2.196,2.2025,2.2037,2.2084,2.211,2.2109,2.2159,2.2184,2.2234,2.2252,2.2238,2.2329,2.2353,2.2425,2.2444,2.2462,2.2477,2.2456,2.2539,2.2547,2.2554,2.2582,2.2592,2.2469,2.2468,2.2468,2.2468,0,2.2051,2.2096,2.213,2.218,2.221,2.2258,2.2278,2.2307,2.2312,2.2328,2.2389,2.2419,2.2466,2.2484,2.2487,2.2557,2.2548,2.2537,2.2511,2.2566,2.2592,2.2602,2.2471,2.2471,2.247,2.247,0,0,2.2122,2.2179,2.2192,2.2216,2.226,2.2295,2.2344,2.2391,2.2417,2.2452,2.2494,2.2555,2.2545,2.2572,2.2579,2.2612,2.2672,2.2597,2.2598,2.2611,2.2753,2.2762,2.2773,2.267,2.2672,2.2674,2.275,0,2.2189,2.2275,2.2289,2.2365,2.2408,2.2409,2.2451,2.2484,2.2502,2.2541,2.256,2.2604,2.2587,2.2603,2.2636,2.2658,2.2701,2.2652,2.271,2.2712,2.2701,2.2787,2.2796,2.2866,2.276,2.2762,2.2763,0,2.2278,2.2318,2.2399,2.244,2.2458,2.2497,2.2542,2.2579,2.2616,2.2627,2.2658,2.2662,2.2714,2.2686,2.2758,2.2725,2.2749,2.2763,2.2766,2.2773,2.2741,2.2796,2.2889,2.29,2.2778,2.2777,2.2776,0,2.2324,2.2397,2.2455,2.2475,2.2524,2.2552,2.2573,2.2609,2.2637,2.2677,2.2695,2.274,2.2765,2.28,2.2816,2.2794,2.2888,2.2861,2.2899,2.2899,2.2918,2.2917,2.3017,2.2933,2.2933,2.2933,2.2932,0,2.2398,2.2448,2.2477,2.2513,2.2569,2.2585,2.264,2.2661,2.2694,2.2735,2.2737,2.2776,2.2794,2.2836,2.2849,2.2908,2.2918,2.2929,2.2932,2.2929,2.2928,2.2946,2.2942,2.2935,2.2935,2.2934,2.2934,0,2.2458,2.2479,2.2543,2.2585,2.2597,2.2637,2.2673,2.2709,2.2727,2.2779,2.2792,2.282,2.2869,2.2889,2.2949,2.2958,2.3026,2.3025,2.3014,2.3015,2.3052,2.3049,2.3168,2.3185,2.3088,2.3089,2.309,0,2.2504,2.2542,2.2589,2.2617,2.264,2.2685,2.2714,2.2732,2.2762,2.2809,2.2839,2.2889,2.2929,2.3008,2.3034,2.308,2.3081,2.3119,2.3088,2.3084,2.3083,2.3081,2.3086,2.3125,2.3126,2.3127,2.3128,0,2.2584,2.2593,2.2635,2.2682,2.2718,2.2755,2.2791,2.2814,2.2837,2.2872,2.2922,2.2954,2.3016,2.3066,2.3114,2.3137,2.3137,2.3138,2.3149,2.3147,2.314,2.3146,2.3031,2.3135,2.3134,2.3133,2.3133,2.3133,2.2639,2.2675,2.2714,2.2762,2.2791,2.2826,2.2862,2.2886,2.2929,2.2981,2.2989,2.3044,2.3083,2.3148,2.3173,2.3216,2.3206,2.3222,2.3227,2.3231,2.3234,2.3132,2.3225,2.3225,2.3224,2.3224,2.3224,0,2.2721,2.2747,2.279,2.2842,2.2881,2.2878,2.2919,2.2951,2.2999,2.3036,2.3076,2.3136,2.3184,2.3215,2.3264,2.3294,2.3295,2.3306,2.3304,2.331,2.3239,2.3225,2.3304,2.3304,2.3304,2.3304,2.3304,2.3304,2.2768,2.2828,2.2843,2.2919,2.2944,2.2998,2.3022,2.3055,2.3084,2.3151,2.3192,2.3212,2.3247,2.3299,2.3344,2.3352,2.337,2.3382,2.339,2.3323,2.3315,2.3307,2.3294,2.3386,2.3386,2.3457,2.3458,2.3458]}]]